2018-099T (43775 NORAD) Tracking and Keplerian Element Data

This shows tracking and keplerian element data for the satellite.

Feedback or suggestion? Click here.




ElementValue
Catalog43775
Name2018-099T
Epoch Orbit93
Epoch Day344.11054719
Epoch Year2018
RAAN53.209
Inclination97.7695
Eccentricity0.0013515
Argument of Perigee237.836
Mean Anonmoly122.155
Mean Motion14.94839152
Decay Rate-2.37E-06
L11 43775U 18099T 18344.11054719 -.00000237 00000-0 -16436-4 0 9999
L22 43775 97.7695 53.2090 0013515 237.8360 122.1550 14.94839152 938

Live tracking and technical data element details for 2018-099T (NORAD 43775). 2018-099T can be tracked NOW for your location showing map with azimuth and elevation plus other details from your city location.

Track the satellite on the map from your city or location and see movement details for azimuth, elevation, latitude, longitude, range, height, and movement on the map or in text.







IsCatalogInMostPopularTable: catalog: 43775, numindb: 1
Update: records affected: 1



GetName: 43775 2018-099T

Hit Count: updated at: Tue, 11 Dec 2018 01:53:47 GMT